{"data":{"norad_id":57528,"intl_designator":"2023-115H","name":"STARLINK-30269","alt_names":[],"object_type":"PAYLOAD","status":"ACTIVE","operator":null,"country":"US","launch_date":"2023-08-08","launch_site_code":"AFWTR","launch_vehicle":null,"mission":null,"orbit_class":"UNKNOWN","rcs_meters":null,"size_class":null,"mass_kg":null,"dimensions":null,"purposes":["comms"],"wikipedia_slug":null,"has_3d_model":false,"image_url":null,"decayed_at":null,"tle_current":{"epoch":"2026-05-25T02:37:01.111296Z","epoch_age_seconds":59514,"freshness":"FRESH","line1":"1 57528U 23115H   26145.10904064 -.00000180  00000+0  29728-5 0  9993","line2":"2 57528  43.0027 290.4665 0000362 304.8099  55.2718 15.27570281154030","mean_motion":15.27570281,"eccentricity":3.62e-5,"inclination_deg":43.0027,"raan_deg":290.4665,"arg_perigee_deg":304.8099,"mean_anomaly_deg":55.2718,"bstar":2.9728e-6,"rev_number":15403,"period_min":94.267348475602,"perigee_km":482.82982238616,"apogee_km":483.32657436653,"semimajor_km":6861.2151983763,"source":"CELESTRAK","updated_at":"2026-05-25T13:38:18.333255Z"}}}